This is the latest recevied weather packets stored in our database for station/object KO4LCK. If no packets are shown the sender has not sent any weather packets the latest 10 day(s).
| Time | Temp. | Humidity | Pressure | Rain* | Wind** | Luminosity | Snow |
|---|---|---|---|---|---|---|---|
| 1777776013 | 10° C | 76% | 1018 hPa | 0 mm | - | 0 W/m² | - |
| 1777775709 | 10° C | 75% | 1018 hPa | 0 mm | - | 0 W/m² | - |
| 1777775406 | 10° C | 74% | 1017.6 hPa | 0 mm | - | 0 W/m² | - |
| 1777775102 | 10° C | 71% | 1017.8 hPa | 0 mm | - | 0 W/m² | - |
| 1777774797 | 10° C | 72% | 1017.6 hPa | 0 mm | - | 0 W/m² | - |
| 1777774494 | 10.56° C | 73% | 1017.4 hPa | 0 mm | - | 0 W/m² | - |
| 1777774191 | 10.56° C | 72% | 1017.6 hPa | 0 mm | - | 0 W/m² | - |
| 1777773889 | 10.56° C | 72% | 1017.4 hPa | 0 mm | - | 0 W/m² | - |
| 1777773585 | 10.56° C | 73% | 1017.3 hPa | 0 mm | - | 0 W/m² | - |
| 1777773282 | 10.56° C | 71% | 1017.1 hPa | 0 mm | - | 0 W/m² | - |
| 1777772978 | 10.56° C | 67% | 1017.2 hPa | 0 mm | - | 0 W/m² | - |
| 1777772675 | 11.11° C | 67% | 1016.9 hPa | 0 mm | - | 0 W/m² | - |
| 1777772373 | 11.11° C | 66% | 1016.9 hPa | 0 mm | - | 0 W/m² | - |
| 1777772070 | 11.67° C | 65% | 1016.9 hPa | 0 mm | - | 0 W/m² | - |
| 1777771767 | 11.67° C | 64% | 1016.6 hPa | 0 mm | - | 0 W/m² | - |
| 1777771465 | 11.67° C | 64% | 1016.8 hPa | 0 mm | - | 0 W/m² | - |
| 1777771161 | 11.67° C | 64% | 1016.8 hPa | 0 mm | - | 0 W/m² | - |
| 1777770858 | 12.22° C | 63% | 1016.7 hPa | 0 mm | - | 0 W/m² | - |
| 1777770555 | 12.22° C | 61% | 1016.7 hPa | 0 mm | - | 0 W/m² | - |
| 1777770252 | 12.22° C | 59% | 1016.4 hPa | 0 mm | - | 0 W/m² | - |
| 1777769949 | 12.78° C | 61% | 1016.4 hPa | 0 mm | - | 0 W/m² | - |
| 1777769646 | 12.78° C | 62% | 1016.3 hPa | 0 mm | - | 0 W/m² | - |
| 1777769342 | 13.33° C | 63% | 1016.4 hPa | 0 mm | - | 0 W/m² | - |
| 1777769040 | 13.89° C | 54% | 1016.1 hPa | 0 mm | - | 0 W/m² | - |
| 1777768737 | 13.89° C | 61% | 1016.3 hPa | 0 mm | - | 0 W/m² | - |
* Rain latest hour (hover to see other rain measurements)
** Current wind speed in m/s (hover to see current wind gust speed)